Weather in Severny

Russia / Udmurt Republic     56°27′52″N   53°44′17″E
temp.,
°C
wind,
m/s
gust,
m/s
humid.,
%
clouds,
%
prec.,
mm/h
press.,
hPa
HPBL,
m
13 may, thu
thu1301:00+17ssw11511 0.0 102611
04:00+15e11547 0.0 102711
07:00+19se22515 0.0 1027120
10:00+24s34400 0.0 1026714
13:00+26s45290 0.0 10261863
16:00+26s56305 0.0 10252013
19:00+23sse22460 0.0 102531
22:00+19sse22525 0.0 102511
14 may, fri
fri1401:00+17sse22595 0.0 102519
04:00+15sse22615 0.0 102520
07:00+19sse37544 0.0 1024208
10:00+24s5741100 0.0 1024624
13:00+27ssw79312 0.0 10231434
16:00+28ssw610335 0.0 10222051
19:00+24sw375137 0.0 1021148
22:00+19ssw335855 0.0 102247
15 may, sat
sat1501:00+18ssw312585 0.0 1021215
04:00+16sw366358 0.0 102288
07:00+19ssw385787 0.0 1022254
10:00+24sw573968 0.0 1022623
13:00+28sw6831100 0.0 10211155
16:00+28sw5834100 0.0 10211331
19:00+24sw365061 0.0 1020115
22:00+20ssw335334 0.0 102037
16 may, sun
sun1601:00+18ssw345868 0.0 102065
04:00+16ssw335916 0.0 102029
07:00+20ssw375413 0.0 1020202
10:00+26ssw58385 0.0 1020661
13:00+29sw69295 0.0 10192788
16:00+29wsw68315 0.0 10183058
19:00+25sw38465 0.0 1017175
22:00+20ssw364868 0.0 101769
17 may, mon
mon1701:00+18sw3658100 0.0 101794
04:00+17sw4106816 0.0 1017175
07:00+20w486362 0.0 1018243
10:00+25wsw574752 0.0 10181033
13:00+27w69382 0.0 10172176
16:00+28w59345 0.0 10172835
19:00+24nw36516 0.0 1017181
22:00+19nne226173 0.0 101919